GFSMW_sfc_thetae_231.txt.gz
Theta_e
327 330 331 332 333 332 330 329 329 332 329 325 323 323 322 325 324 326 331 329 328 329 330 324 325 327 324 328 329 326 326 322 327 325 326 328 336 341 342 344 345 336 343
326 328 330 331 328 328 327 327 328 330 329 326 326 324 324 323 323 323 331 330 329 327 326 328 324 326 322 327 329 326 320 322 324 320 322 319 325 332 339 339 343 338 338
324 327 328 328 325 324 323 325 328 329 329 330 326 327 326 324 320 320 321 324 325 325 327 327 325 326 324 319 323 322 322 318 321 327 322 317 317 327 331 337 341 345 342
325 327 326 324 321 322 322 325 327 328 328 329 326 327 320 318 319 319 319 322 325 324 324 327 324 324 321 321 320 321 319 319 315 320 323 328 326 319 322 331 333 343 338
324 324 323 320 321 320 322 324 326 326 326 325 325 320 321 318 318 319 324 325 324 325 319 322 322 322 319 321 320 318 322 320 317 320 319 322 324 329 325 324 332 327 324
322 321 320 321 320 321 321 323 323 323 323 322 322 324 321 321 317 318 316 316 316 316 318 318 319 319 318 319 319 320 319 321 320 321 320 319 315 316 322 322 327 323 327
319 319 318 318 319 320 321 321 320 320 321 320 319 319 321 321 321 317 313 314 314 313 316 318 318 317 319 318 320 320 319 319 319 316 319 317 318 320 323 322 322 318 313
318 318 317 318 319 320 319 320 319 319 319 319 318 318 319 315 314 315 315 313 312 312 317 317 315 317 317 317 318 320 316 319 317 316 316 319 317 320 320 319 320 317 313
316 317 318 318 318 318 319 318 317 318 318 317 318 319 317 316 315 315 314 313 313 311 313 315 315 315 315 315 316 312 313 316 315 314 316 315 318 320 316 320 320 317 312
315 316 316 317 319 319 318 321 319 317 317 316 315 315 315 314 315 313 311 312 312 312 311 312 313 311 313 312 311 312 313 311 311 311 312 314 316 318 318 315 318 319 317
314 315 314 315 316 317 315 317 318 316 315 314 315 314 312 313 313 311 309 313 309 310 309 310 309 307 308 308 308 309 310 309 309 311 310 311 314 313 317 318 316 316 316
313 313 314 314 315 314 314 315 317 314 314 313 312 311 312 312 311 308 310 311 309 309 308 308 306 305 305 306 306 306 308 307 305 308 309 308 310 311 313 313 316 316 316
311 312 312 312 312 313 313 314 315 313 312 309 310 310 309 307 308 310 309 309 307 307 306 305 306 305 306 306 306 305 306 306 306 307 307 308 309 309 311 312 314 312 315
310 311 311 311 312 312 312 312 312 310 308 308 308 309 308 308 307 307 308 305 305 304 304 306 306 307 306 306 307 307 307 305 305 306 307 307 307 309 309 312 311 314 312
308 309 309 309 309 310 310 309 308 307 307 307 305 305 306 304 309 309 309 308 308 307 308 308 309 309 309 305 306 306 306 304 304 305 306 307 306 307 306 307 306 310 311
307 307 307 307 306 305 305 306 305 306 306 304 304 304 306 307 308 308 308 309 309 309 309 310 309 308 307 301 303 305 304 305 303 303 303 304 305 305 304 304 304 304 305
306 305 305 303 300 300 302 302 303 304 303 302 304 304 307 306 307 308 309 308 310 310 309 309 309 309 308 300 300 304 305 304 303 303 302 303 303 303 302 302 302 303 303
305 304 302 302 301 299 301 302 302 302 301 304 305 306 308 306 308 308 309 310 311 310 310 310 311 311 307 300 299 302 308 306 304 305 305 305 303 302 302 302 300 302 302
304 301 302 302 302 300 300 300 301 301 304 304 306 306 308 308 308 307 309 311 311 311 310 311 310 311 309 298 299 304 309 309 307 306 302 305 304 298 298 303 301 301 301
302 301 300 300 300 299 300 300 301 304 304 306 307 307 308 308 308 309 310 312 311 311 310 310 311 306 309 297 298 302 311 309 306 307 305 298 300 296 297 306 305 302 299
300 300 299 299 301 301 301 303 304 304 307 308 308 308 308 308 310 311 311 312 311 311 311 310 311 309 306 306 297 297 310 308 306 304 303 301 296 295 296 298 302 299 302
299 299 298 299 301 304 306 304 305 307 307 307 308 307 308 308 307 310 311 311 310 308 309 309 308 307 308 299 298 297 297 301 305 303 303 300 295 295 295 299 295 296 300
298 299 299 300 305 305 306 304 306 307 307 306 306 307 307 309 310 308 309 306 308 306 305 305 304 304 306 307 299 297 297 298 303 303 298 297 296 296 297 296 296 299 301
298 300 299 300 303 305 304 305 306 307 306 306 305 306 306 308 308 308 307 304 303 303 303 303 303 304 304 302 304 303 302 300 301 300 301 298 298 296 298 299 299 301 301
299 300 304 302 302 303 304 305 307 307 306 306 305 306 306 308 308 305 304 304 302 300 302 302 301 298 299 299 296 296 301 301 299 300 300 299 297 296 297 297 298 300 300
299 303 302 303 302 303 305 307 308 307 306 305 304 303 304 305 308 303 304 294 295 295 293 292 296 299 294 293 293 293 293 293 295 298 296 295 295 295 295 295 296 299 300

GFSMW_sfc_thetae_234.txt.gz
Theta_e
327 330 331 333 335 335 334 334 335 337 334 330 326 325 323 325 326 326 332 329 325 329 325 323 323 323 319 318 321 321 320 320 321 318 318 320 322 323 328 330 334 335 338
325 328 330 332 332 332 332 333 334 335 334 329 332 330 327 325 325 326 327 323 326 325 322 322 320 320 320 320 319 320 315 316 319 315 315 311 315 320 325 325 329 332 340
324 327 329 329 329 329 329 330 333 334 334 332 327 327 324 324 321 320 319 323 324 324 322 321 322 319 317 315 316 317 314 312 316 317 313 308 307 315 319 322 327 332 334
325 326 327 325 327 324 326 330 332 333 329 332 325 324 319 316 318 318 319 321 323 320 322 319 318 318 318 316 315 315 315 314 311 315 316 317 316 310 309 318 324 330 330
323 323 324 326 323 323 325 329 332 332 331 330 327 321 320 318 318 317 317 319 319 317 318 318 317 316 316 316 316 315 315 316 314 314 314 314 315 316 313 310 316 324 328
322 323 321 322 321 322 323 327 330 330 328 326 326 325 321 319 315 316 314 313 314 315 316 316 315 316 315 315 315 316 316 316 315 315 315 313 312 311 312 311 314 317 320
320 320 320 319 321 322 320 319 321 324 323 325 325 323 322 320 318 315 312 313 311 311 312 313 314 315 315 315 315 315 315 315 314 313 313 315 315 316 315 314 313 314 319
318 317 318 318 318 320 321 321 322 322 323 323 322 323 322 316 314 314 314 312 311 311 313 312 313 314 314 315 314 313 313 314 312 312 313 313 313 315 315 314 312 310 314
317 317 318 314 311 316 314 318 317 318 320 317 319 319 318 317 314 315 313 312 312 312 311 312 311 312 312 312 311 309 311 312 312 311 311 311 312 314 316 316 314 312 307
314 315 314 316 319 317 319 323 321 316 319 317 314 314 315 314 315 313 311 311 312 312 310 311 310 310 309 308 307 306 309 309 310 310 309 309 310 312 314 316 316 315 312
312 313 314 316 314 315 317 318 318 317 316 316 313 313 313 313 313 311 312 312 311 310 309 308 307 307 306 307 306 306 306 306 307 308 307 308 309 309 312 313 315 314 314
311 311 312 313 314 313 314 314 316 315 313 312 311 312 312 311 310 310 311 311 309 308 308 307 306 306 307 307 307 305 305 305 304 306 305 306 308 308 309 310 311 313 315
310 311 311 311 311 312 312 311 310 309 309 310 309 310 310 308 309 309 310 310 308 307 307 306 306 306 308 307 307 306 306 306 304 305 305 306 307 307 309 310 310 311 313
310 310 309 308 309 309 307 308 309 308 307 308 307 307 307 309 308 308 309 309 308 306 305 307 307 308 307 307 306 307 305 304 305 305 306 305 305 304 304 308 306 309 310
308 307 306 307 305 304 304 304 305 307 307 306 305 305 306 306 308 309 310 310 309 309 310 309 309 309 309 304 305 306 304 304 303 303 303 304 307 306 305 303 302 303 307
306 305 304 303 302 302 301 301 303 303 306 304 303 305 306 308 308 309 309 310 310 311 311 311 310 309 306 301 303 305 304 304 302 301 302 303 304 304 304 303 305 303 301
304 303 302 301 302 300 301 300 301 303 304 303 305 306 307 307 309 309 309 309 310 310 310 310 311 309 307 300 300 305 306 304 303 304 303 303 304 302 302 303 303 304 303
303 302 301 300 301 302 302 301 302 302 304 305 306 307 307 307 309 309 309 311 312 310 311 310 310 310 304 300 299 302 306 305 306 304 303 305 302 300 299 301 301 301 303
303 302 301 300 301 301 301 302 303 304 305 305 306 307 308 307 308 309 309 311 310 311 311 310 310 309 304 298 298 302 306 306 306 302 301 301 300 297 298 303 301 300 301
302 301 300 300 301 302 303 303 303 304 305 305 307 308 309 309 308 309 310 311 311 310 311 310 310 305 307 297 298 300 308 305 305 304 302 299 297 296 296 303 302 298 300
301 300 300 300 302 305 305 304 305 305 307 308 308 309 310 310 310 310 310 310 310 309 310 309 309 307 303 303 297 297 306 304 303 302 300 298 296 295 296 298 299 299 301
299 300 300 302 304 306 306 305 305 308 309 308 308 307 310 308 309 309 309 309 309 308 307 308 307 307 308 299 298 297 297 300 301 301 301 298 295 295 295 298 296 297 301
298 300 301 302 305 306 307 304 307 308 308 306 308 308 310 308 310 308 306 303 304 304 303 303 301 300 302 304 300 298 297 299 300 300 298 296 296 296 297 296 297 299 301
299 301 302 303 303 304 305 307 307 307 307 306 307 307 307 307 307 305 305 302 301 301 300 299 298 298 299 300 300 301 303 300 301 301 299 298 297 297 298 299 300 301 301
300 302 303 303 303 305 305 307 308 308 305 305 306 305 306 307 307 301 300 302 299 297 298 298 298 296 295 295 294 295 298 299 297 299 298 296 296 296 296 298 299 300 302
302 303 304 304 305 305 305 307 307 306 304 304 303 303 305 307 307 302 300 294 295 294 293 293 293 297 294 293 293 294 293 294 295 296 295 294 295 295 295 297 298 300 301

GFSMW_sfc_thetae_237.txt.gz
Theta_e
323 327 328 329 328 325 324 323 322 322 322 319 317 317 316 316 317 318 317 317 318 319 316 315 314 314 312 312 313 313 312 310 311 310 311 313 314 314 315 318 320 323 324
321 324 326 326 324 322 321 322 323 322 320 318 320 318 314 314 316 314 314 316 317 319 316 314 314 313 311 310 309 310 310 310 309 309 308 304 308 312 314 316 319 320 331
319 322 324 323 323 320 321 321 321 321 320 318 316 314 313 311 310 311 311 314 317 317 314 313 313 313 313 309 309 310 308 307 309 309 306 303 302 308 312 312 316 321 324
321 322 323 320 319 320 320 320 320 320 319 316 314 312 309 307 309 309 309 312 314 312 314 313 312 310 310 308 309 312 310 310 308 310 311 310 308 305 303 308 313 318 322
319 320 320 320 319 317 317 318 319 318 318 316 314 311 309 310 310 308 309 308 309 311 313 311 310 310 310 310 310 312 312 312 310 309 309 309 311 309 305 304 308 314 318
318 319 320 318 315 315 314 318 318 319 317 315 314 312 310 309 308 308 305 306 307 308 308 310 309 309 310 311 312 312 310 309 311 311 311 311 309 308 308 307 307 309 313
317 315 311 312 311 312 312 314 315 314 312 313 315 311 310 308 306 305 305 305 305 304 306 308 307 308 311 310 309 307 307 308 310 310 310 312 311 311 307 309 306 309 313
312 312 309 308 311 311 311 313 313 313 313 310 311 310 309 308 306 306 306 305 305 305 307 306 307 307 310 307 309 306 305 308 310 309 306 306 307 308 310 310 308 307 310
309 309 310 312 312 311 311 311 311 310 312 311 310 308 310 307 306 306 306 305 305 308 307 306 306 307 307 305 305 304 306 307 308 307 308 308 309 310 311 312 313 309 306
305 306 307 308 308 307 309 310 311 308 309 308 307 307 306 307 307 306 304 305 305 305 304 307 307 306 306 305 305 305 305 305 305 306 305 306 309 309 310 311 312 312 310
303 305 306 306 306 308 307 307 306 306 305 305 304 305 306 306 305 304 304 304 304 303 304 306 303 304 304 304 302 303 304 304 304 304 304 305 307 307 309 309 310 310 308
303 303 304 305 303 302 303 303 305 304 304 304 304 304 304 304 303 303 303 303 302 303 303 303 304 304 305 305 305 304 304 304 303 303 304 304 307 306 308 309 309 310 311
303 303 302 302 301 300 301 300 302 303 305 305 303 302 302 302 301 301 305 304 302 302 302 304 303 305 306 303 302 304 304 304 303 304 305 305 304 303 303 306 304 308 310
302 301 300 299 299 300 299 299 300 302 304 303 301 301 300 300 301 303 303 304 304 304 305 304 305 304 304 301 302 305 304 303 304 303 303 305 304 302 302 303 301 303 307
301 299 298 297 298 298 297 299 300 301 303 302 300 299 301 301 302 303 303 304 303 304 304 304 304 303 301 302 300 304 303 302 302 302 303 304 305 306 304 303 301 300 301
300 299 299 298 298 298 298 299 299 300 302 301 299 301 301 301 302 303 303 303 304 303 303 304 303 301 302 301 302 303 303 303 302 302 303 303 304 302 303 304 305 303 301
299 298 298 297 297 297 299 297 298 300 300 299 302 303 303 303 303 303 303 302 302 301 301 302 302 298 297 300 300 303 303 302 302 301 299 301 300 299 299 302 303 303 304
298 297 296 296 298 299 297 298 299 299 299 300 302 303 304 304 304 304 302 302 302 301 302 302 302 298 299 299 298 300 304 303 301 298 296 296 297 298 298 301 301 301 302
297 299 299 296 299 301 298 300 298 300 301 302 302 303 303 303 303 303 301 302 301 301 302 303 301 298 297 298 298 302 304 305 300 298 297 296 295 297 298 302 300 301 302
298 296 297 299 297 298 299 298 300 300 300 302 303 303 303 302 302 301 301 304 302 301 304 303 304 304 299 297 297 300 301 303 302 300 296 298 296 295 296 298 300 299 301
297 297 297 296 298 299 300 299 299 299 302 304 304 303 302 301 302 300 301 301 300 300 300 301 303 303 299 299 297 297 299 300 299 297 296 297 296 295 296 298 300 299 302
296 298 298 297 298 300 300 299 297 301 303 305 304 301 302 303 303 299 298 297 298 300 297 297 299 301 302 300 298 297 297 300 297 297 297 297 296 295 296 299 297 298 301
296 297 299 297 300 299 299 297 299 303 304 303 301 301 304 302 300 298 295 296 296 297 296 296 295 296 298 297 297 297 297 299 298 298 297 297 296 297 298 297 298 299 301
297 296 297 297 297 299 302 302 303 304 301 299 300 300 299 299 297 298 297 295 294 294 295 296 296 296 297 296 295 297 298 299 300 299 298 298 297 297 299 300 301 302 301
295 297 297 297 299 303 302 304 305 302 299 300 301 299 299 298 295 294 294 296 295 295 295 294 295 295 294 295 294 294 297 297 296 297 297 296 296 297 298 300 301 301 301
297 298 300 301 301 303 303 303 304 302 299 298 299 300 299 298 300 299 298 295 294 294 292 293 293 296 293 293 293 294 293 293 294 296 295 295 296 296 297 298 298 299 299

GFSMW_sfc_thetae_240.txt.gz
Theta_e
323 325 325 323 322 322 321 321 319 318 316 316 314 311 310 311 313 311 314 314 314 317 312 310 311 311 310 309 309 308 308 308 308 307 308 309 310 310 310 312 314 316 318
321 323 323 322 321 320 320 319 318 316 315 316 316 312 311 312 313 311 311 312 314 314 312 309 309 309 308 308 308 307 307 307 307 304 306 300 303 306 311 311 313 313 319
319 322 321 320 320 319 320 319 318 315 315 315 313 311 311 310 308 309 308 310 314 313 311 310 309 308 306 307 306 307 305 306 309 307 307 303 301 305 308 310 309 313 315
321 322 320 317 318 320 320 318 318 315 315 313 311 309 307 306 307 307 307 309 310 310 311 310 309 307 306 305 307 311 308 308 308 309 310 308 309 304 304 309 308 311 313
319 318 318 320 320 320 316 316 316 315 314 312 312 310 308 307 307 306 305 305 307 308 310 309 308 306 306 307 307 308 308 308 307 308 307 309 310 310 308 302 304 310 310
320 321 322 322 317 314 316 317 315 314 315 316 315 310 307 305 304 304 303 304 304 305 306 308 306 305 305 306 306 308 304 304 307 309 308 307 306 305 306 305 303 304 308
318 318 316 310 309 313 315 315 316 314 313 312 309 307 305 304 304 303 303 303 302 302 304 305 304 304 305 306 304 303 303 305 305 308 307 309 307 307 308 306 304 306 307
312 308 307 308 309 308 308 309 309 309 307 306 305 306 305 305 305 307 305 303 302 303 304 305 304 306 305 306 302 301 302 306 307 307 307 307 307 308 309 308 307 304 303
305 305 305 305 307 306 306 306 306 305 305 304 304 305 305 305 304 303 303 302 303 305 305 304 303 307 305 304 305 302 303 305 305 305 306 305 305 308 309 309 310 308 304
302 302 303 303 303 304 303 303 303 302 302 303 303 305 304 306 305 303 302 302 302 302 301 302 303 301 303 304 301 301 301 302 303 304 302 304 306 307 308 308 310 310 309
300 301 301 301 300 301 300 301 301 301 301 301 302 303 304 303 302 301 301 301 301 300 301 302 301 303 305 302 302 304 305 304 304 304 304 302 304 306 308 308 309 310 310
300 300 299 299 298 297 297 297 299 299 301 301 301 300 301 301 300 300 300 301 301 301 301 301 301 301 304 303 300 302 304 304 303 303 304 305 305 303 304 306 304 307 310
298 298 298 297 298 297 297 297 298 299 300 301 300 300 299 299 298 299 300 301 301 301 302 302 301 302 304 300 303 304 304 303 303 303 303 304 303 301 302 302 301 304 307
299 297 295 295 296 297 296 297 298 299 299 301 299 298 298 298 298 299 300 301 301 301 301 302 302 303 301 299 301 304 303 302 302 303 303 303 303 302 301 302 301 301 302
297 296 296 295 295 296 296 298 298 298 299 300 298 298 299 300 300 300 301 301 301 302 302 302 302 300 300 301 298 301 302 302 302 303 303 303 304 304 304 301 301 300 300
297 297 297 296 296 296 297 297 297 298 299 298 298 300 300 301 301 301 301 301 301 301 301 300 301 301 301 301 302 304 302 302 302 298 298 300 300 299 302 304 304 304 301
297 296 296 295 295 296 297 295 296 298 298 298 300 301 301 301 301 301 301 300 300 299 301 299 298 296 296 300 299 301 303 302 299 295 294 296 298 297 296 302 303 303 304
296 296 294 294 295 297 297 297 297 298 298 299 300 301 301 301 301 301 300 300 299 299 299 300 299 295 297 299 299 300 304 302 298 294 294 294 294 296 297 300 301 302 303
295 295 295 298 295 296 297 297 297 298 299 300 300 301 301 300 300 299 299 299 298 298 302 303 300 297 295 298 298 301 303 301 299 297 295 295 295 297 297 300 300 301 302
296 294 295 295 296 297 297 296 297 297 298 300 301 301 301 300 298 297 297 296 296 298 300 301 303 302 299 298 297 298 302 302 300 297 295 298 297 295 296 300 300 300 302
294 295 295 294 295 296 297 297 296 297 300 305 301 301 302 299 297 294 294 294 297 296 294 295 299 302 300 299 297 297 298 297 297 297 295 296 297 295 296 298 300 300 304
294 296 294 294 296 297 296 295 296 299 301 302 302 300 301 301 297 294 293 294 293 293 293 293 293 296 298 297 297 296 296 298 295 294 296 297 295 295 295 298 296 298 302
294 294 294 295 296 297 297 297 299 300 300 298 297 297 298 297 296 293 292 292 292 292 295 296 296 296 298 296 296 296 297 298 297 298 297 297 296 297 299 297 298 299 302
293 294 295 295 296 299 301 301 301 301 299 299 299 300 297 293 293 294 295 296 294 295 295 295 295 296 297 296 296 297 298 299 298 298 298 298 298 298 300 301 301 301 301
294 295 295 297 299 301 301 303 303 299 296 296 298 298 297 293 294 296 296 296 295 294 294 293 294 294 294 294 294 295 296 297 296 297 298 297 298 299 299 299 300 300 300
295 297 298 298 299 300 299 302 301 298 296 297 297 297 297 294 295 297 297 294 294 293 293 293 292 296 293 293 293 293 293 293 294 297 296 296 297 297 298 298 298 299 299

GFSMW_sfc_thetae_246.txt.gz
Theta_e
318 321 321 321 320 320 320 321 320 320 319 315 314 312 310 312 313 313 315 314 315 316 313 311 310 310 308 307 308 308 307 307 309 307 307 309 311 311 311 312 314 314 315
316 318 319 319 319 320 321 323 322 320 317 318 316 312 311 312 312 313 313 313 314 314 312 309 309 309 307 307 307 307 306 306 309 306 305 303 306 310 312 313 313 314 315
315 316 317 318 320 322 323 321 320 318 319 318 314 312 312 311 309 309 310 311 311 312 311 310 309 308 307 305 305 308 306 304 307 307 304 302 300 304 310 311 313 313 313
316 316 317 319 323 323 323 322 321 319 319 315 311 310 307 306 306 308 308 307 309 310 310 310 309 307 306 305 306 309 306 305 303 304 307 309 307 302 301 308 310 311 311
316 317 320 321 322 323 321 320 321 317 315 314 312 310 308 307 307 306 305 306 310 310 310 309 308 307 305 305 305 306 304 304 302 302 303 307 308 308 303 301 304 308 312
318 320 317 315 314 318 319 318 313 309 309 309 308 307 305 304 304 305 306 306 308 308 307 307 306 306 305 305 306 305 303 303 302 304 306 306 304 303 303 302 303 303 309
312 308 307 307 307 305 306 307 305 304 305 306 306 305 304 305 304 304 306 306 304 304 304 305 305 304 306 308 307 304 303 303 304 306 305 306 306 306 304 304 303 303 307
303 303 302 301 301 302 301 301 301 301 303 303 303 304 304 304 303 303 303 304 303 303 304 304 304 306 306 305 305 304 303 304 303 304 306 305 305 306 305 304 302 301 305
298 298 299 299 299 298 298 298 299 300 301 301 301 302 303 302 302 302 303 302 303 303 305 303 303 304 304 306 304 302 304 305 304 304 305 304 304 306 306 307 306 304 300
297 297 298 299 300 299 298 299 299 298 300 300 300 302 300 301 302 301 301 301 302 303 303 302 303 303 303 304 304 304 305 305 305 305 305 305 305 306 306 305 306 305 305
297 298 298 300 299 298 297 297 298 298 298 299 300 300 300 300 300 300 300 301 301 302 302 303 303 303 304 304 304 305 305 304 303 304 304 304 304 303 303 304 304 304 304
299 299 299 298 297 297 297 296 297 297 298 299 299 299 299 300 299 299 300 301 301 302 302 303 303 304 304 302 303 304 303 303 302 303 303 303 304 301 303 302 302 302 302
299 297 296 296 297 297 297 297 297 297 298 299 299 299 299 299 299 300 300 301 302 302 302 303 303 304 303 301 301 304 303 303 303 303 303 302 302 301 301 303 301 303 302
298 298 297 295 295 296 296 297 297 298 299 299 299 298 299 299 300 300 301 302 302 302 302 303 303 303 302 301 301 303 303 303 304 301 300 300 300 301 301 302 301 303 302
299 297 295 294 294 295 296 297 297 298 299 298 298 299 300 301 301 301 302 302 302 302 302 303 302 300 301 301 301 302 303 302 301 298 298 299 303 303 303 302 302 303 301
297 296 296 295 295 295 296 297 297 298 298 297 298 300 301 301 301 301 302 302 301 301 302 300 300 299 299 300 301 304 302 303 298 296 297 298 300 301 301 302 305 305 303
296 295 295 294 294 294 296 296 297 297 297 298 300 301 301 301 301 300 300 300 300 300 303 301 300 298 299 299 299 302 303 301 298 298 297 297 299 300 299 300 303 304 305
294 294 293 293 295 295 295 296 297 297 298 299 300 301 301 300 300 298 297 298 298 299 300 302 302 300 300 299 298 300 305 301 299 298 297 298 299 301 300 301 303 304 305
294 294 294 294 295 295 295 295 296 297 299 299 301 301 301 299 297 296 296 297 296 296 297 302 302 300 299 298 297 299 303 301 300 299 298 300 299 298 297 301 302 301 301
294 294 295 294 294 295 295 296 297 297 298 300 300 301 301 297 295 295 295 295 296 297 299 298 298 299 298 297 296 298 303 299 298 298 298 299 298 296 296 303 302 299 299
294 295 294 293 294 296 297 297 297 298 300 301 300 300 298 296 295 295 295 294 295 296 296 298 299 299 299 298 296 296 299 298 297 296 298 299 297 295 296 298 300 299 300
293 294 293 294 298 298 298 297 298 300 301 299 300 299 298 297 296 296 295 295 295 296 297 297 297 299 299 298 297 296 296 298 297 297 298 299 296 295 296 298 296 297 299
293 294 294 295 297 298 299 297 300 301 299 300 299 298 298 298 297 297 296 296 296 295 295 295 295 296 298 297 297 296 296 298 298 299 299 297 296 297 299 297 297 298 299
293 294 295 297 296 298 299 300 301 299 298 298 297 298 297 297 298 298 298 296 294 294 294 294 294 295 296 296 296 298 298 298 299 300 301 300 299 299 300 300 299 299 299
294 295 296 296 296 297 300 299 299 298 299 298 298 298 298 298 298 298 297 296 296 294 293 294 295 294 293 294 294 294 297 297 297 300 301 300 299 299 300 300 300 300 300
296 296 296 296 296 297 299 299 299 298 296 297 297 297 298 298 297 297 297 295 295 294 293 292 293 297 293 293 293 293 293 293 294 299 299 299 299 298 298 298 298 298 298